IK1WHN-5 Weather Reports


Display with metric or nautical units.
time (UTC)temp
F
wind
direction
speed
MPH
gust
MPH
rain 1hr
in
rain 24hr
in
rain mn
in
humidity
%
barometer
mb
20260506044102 0 220 6.0 6.0 0.00 0.00 0.00 94 1008.1
20260506043603 0 354 9.0 17.0 0.00 0.00 0.00 94 1007.3
20260506043102 0 315 4.0 9.0 0.00 0.00 0.00 94 1007.8
20260506042603 0 281 2.0 4.0 0.00 0.00 0.00 94 1008.7
20260506042102 0 281 1.0 4.0 0.00 0.00 0.00 94 1008.2
20260506041603 0 311 1.0 5.0 0.00 0.00 0.00 94 1007.8
20260506041103 0 14 2.0 4.0 0.00 0.00 0.00 94 1008.1
20260506040603 0 327 3.0 5.0 0.00 0.00 0.00 94 1008.2
20260506035603 0 326 2.0 3.0 0.00 0.00 0.00 94 1008.5
20260506035103 0 70 3.0 4.0 0.00 0.00 0.00 94 1008.6
20260506034603 0 320 3.0 3.0 0.00 0.00 0.00 94 1008.8
20260506034102 0 255 0.0 2.0 0.00 0.00 0.00 94 1008.3
20260506033602 0 313 2.0 3.0 0.00 0.00 0.00 94 1008.5
20260506033102 0 331 3.0 5.0 0.00 0.00 0.00 94 1008.6
20260506032603 0 350 2.0 6.0 0.00 0.00 0.00 94 1008.5
20260506032102 0 0 0.0 2.0 0.00 0.00 0.00 94 1008.6
20260506031602 0 313 4.0 7.0 0.00 0.00 0.00 94 1008.5
20260506031103 0 285 4.0 6.0 0.00 0.00 0.00 94 1008.2
20260506030603 0 323 6.0 8.0 0.00 0.00 0.00 94 1008.3
20260506030103 0 312 3.0 10.0 0.00 0.00 0.00 94 1008.3
20260506025603 0 340 6.0 12.0 0.00 0.00 0.00 94 1008.7
20260506025102 0 251 2.0 13.0 0.00 0.00 0.00 94 1008.7
20260506024604 0 254 1.0 7.0 0.00 0.00 0.00 94 1008.2
20260506024102 0 337 6.0 9.0 0.00 0.00 0.00 94 1008.2
20260506023603 0 353 3.0 7.0 0.00 0.00 0.00 93 1007.7
20260506023102 0 17 3.0 4.0 0.00 0.00 0.00 93 1007.8
20260506022607 0 345 0.0 6.0 0.00 0.00 0.00 93 1007.8
20260506022102 0 335 5.0 6.0 0.00 0.00 0.00 93 1008.3
20260506021603 0 332 2.0 5.0 0.00 0.00 0.00 93 1008.2
20260506021103 0 23 1.0 5.0 0.00 0.00 0.00 93 1008.6
20260506020603 0 357 2.0 5.0 0.00 0.00 0.00 93 1008.7
20260506020104 0 0 2.0 3.0 0.00 0.00 0.00 93 1008.7
20260506015603 0 358 6.0 6.0 0.00 0.00 0.00 93 1008.6
20260506015103 0 297 0.0 1.0 0.00 0.00 0.00 93 1009.0
20260506014603 0 5 1.0 5.0 0.00 0.00 0.00 93 1008.8
20260506014103 0 345 0.0 6.0 0.00 0.00 0.00 93 1008.8
20260506013602 0 23 1.0 4.0 0.00 0.00 0.00 93 1008.7
20260506013104 0 356 1.0 3.0 0.00 0.00 0.00 93 1008.8
20260506012603 0 180 0.0 0.0 0.00 0.00 0.00 93 1009.2
20260506012103 0 300 1.0 3.0 0.00 0.00 0.00 93 1008.8
20260506011603 0 0 0.0 1.0 0.00 0.00 0.00 92 1009.2
20260506011103 0 0 3.0 6.0 0.00 0.00 0.00 92 1009.2
20260506010603 0 5 1.0 3.0 0.00 0.00 0.00 92 1009.5
20260506010103 0 350 4.0 8.0 0.00 0.00 0.00 92 1009.3
20260506005603 0 20 3.0 7.0 0.00 0.00 0.00 92 1009.3
20260506005104 0 23 0.0 3.0 0.00 0.00 0.00 92 1009.3
20260506004604 0 285 1.0 2.0 0.00 0.00 0.00 92 1009.3
20260506004102 0 323 4.0 5.0 0.00 0.00 0.00 91 1009.7
20260506003604 0 350 4.0 4.0 0.00 0.00 0.00 91 1009.7
20260506003103 0 354 0.0 3.0 0.00 0.00 0.00 91 1009.8
20260506002602 0 351 3.0 4.0 0.00 0.00 0.00 91 1009.8
20260506002102 0 15 0.0 3.0 0.00 0.00 0.00 90 1009.7
20260506001602 0 0 0.0 3.0 0.00 0.00 0.00 90 1009.7
20260506001103 0 261 0.0 1.0 0.00 0.00 0.00 89 1010.0
20260506000602 0 261 0.0 2.0 0.00 0.00 0.00 89 1009.6
20260505235602 0 33 5.0 5.0 0.00 0.00 0.00 89 1009.7
20260505235103 0 0 3.0 8.0 0.00 0.00 0.00 89 1009.8
20260505234603 0 18 3.0 6.0 0.00 0.00 0.00 88 1010.0
20260505234102 0 348 1.0 2.0 0.00 0.00 0.00 88 1010.0
20260505233603 0 332 2.0 3.0 0.00 0.00 0.00 88 1010.2
20260505233103 0 0 1.0 2.0 0.00 0.00 0.00 87 1010.2
20260505232603 0 0 0.0 4.0 0.00 0.00 0.00 87 1010.3
20260505232102 0 343 4.0 5.0 0.00 0.00 0.00 87 1010.5
20260505231602 0 352 6.0 8.0 0.00 0.00 0.00 86 1010.7
20260505231103 0 351 2.0 8.0 0.00 0.00 0.00 86 1010.7
20260505230602 0 351 3.0 7.0 0.00 0.00 0.00 86 1010.8
20260505225603 0 323 2.0 8.0 0.00 0.00 0.00 87 1010.8
20260505225103 0 352 4.0 7.0 0.00 0.00 0.00 87 1010.8
20260505224602 0 315 2.0 4.0 0.00 0.00 0.00 87 1011.1
20260505224103 0 0 2.0 5.0 0.00 0.00 0.00 87 1011.2
20260505223603 0 6 2.0 4.0 0.00 0.00 0.00 87 1011.2
20260505223103 0 262 0.0 1.0 0.00 0.00 0.00 87 1011.3
20260505222603 0 66 0.0 2.0 0.00 0.00 0.00 87 1011.2
20260505222103 0 339 2.0 3.0 0.00 0.00 0.00 87 1011.2
20260505221602 0 353 4.0 6.0 0.00 0.00 0.00 87 1011.6
20260505221102 0 23 5.0 6.0 0.00 0.00 0.00 87 1011.2
20260505220603 0 330 0.0 6.0 0.00 0.00 0.00 87 1011.2
20260505220103 0 59 1.0 6.0 0.00 0.00 0.00 87 1011.1
20260505215603 0 357 2.0 6.0 0.00 0.00 0.00 87 1011.2
20260505215102 0 14 1.0 4.0 0.00 0.00 0.00 87 1011.2
20260505214602 0 354 2.0 3.0 0.00 0.00 0.00 88 1011.3
20260505214102 0 7 1.0 6.0 0.00 0.00 0.00 87 1011.3
20260505213603 0 324 4.0 4.0 0.00 0.00 0.00 88 1011.6
20260505213103 0 21 2.0 4.0 0.00 0.00 0.00 88 1011.6
20260505212602 0 354 3.0 4.0 0.00 0.00 0.00 88 1011.5
20260505212102 0 24 3.0 5.0 0.00 0.00 0.00 89 1011.6
20260505211603 0 358 3.0 5.0 0.00 0.00 0.00 89 1011.7
20260505211103 0 11 0.0 6.0 0.00 0.00 0.00 89 1011.3
20260505210603 0 353 4.0 5.0 0.00 0.00 0.00 89 1011.3
20260505205602 0 23 1.0 6.0 0.00 0.00 0.00 90 1011.6
20260505205103 0 26 2.0 3.0 0.00 0.00 0.00 90 1011.7
20260505204603 0 354 2.0 4.0 0.00 0.00 0.00 89 1011.7
20260505204102 0 253 1.0 2.0 0.00 0.00 0.00 89 1011.8
20260505203603 0 306 1.0 3.0 0.00 0.00 0.00 89 1011.6
20260505203102 0 294 0.0 1.0 0.00 0.00 0.00 89 1012.0
20260505202602 0 270 0.0 2.0 0.00 0.00 0.00 88 1011.8
20260505201603 0 0 0.0 2.0 0.00 0.00 0.00 88 1012.1
20260505201102 0 344 1.0 1.0 0.00 0.00 0.00 87 1012.0
20260505200603 0 187 1.0 1.0 0.00 0.00 0.00 87 1011.8
20260505195603 0 0 0.0 2.0 0.00 0.00 0.00 86 1011.7
20260505195103 0 180 0.0 1.0 0.00 0.00 0.00 85 1011.7
20260505194603 0 249 0.0 1.0 0.00 0.00 0.00 85 1011.5
20260505194103 0 117 1.0 2.0 0.00 0.00 0.00 84 1011.6
20260505193602 0 180 1.0 1.0 0.00 0.00 0.00 84 1011.3
20260505193102 0 180 0.0 1.0 0.00 0.00 0.00 83 1011.7
20260505192602 0 111 0.0 2.0 0.00 0.00 0.00 83 1011.5
20260505192103 0 188 0.0 1.0 0.00 0.00 0.00 83 1011.5
20260505191603 0 145 1.0 2.0 0.00 0.00 0.00 82 1011.5
20260505191102 0 126 2.0 3.0 0.00 0.00 0.00 82 1011.3
20260505190602 0 180 4.0 6.0 0.00 0.00 0.00 81 1011.3
20260505190103 0 201 2.0 4.0 0.00 0.00 0.00 82 1011.2
20260505185602 0 145 1.0 3.0 0.00 0.00 0.00 82 1011.2
20260505185102 0 151 1.0 4.0 0.00 0.00 0.00 82 1011.2
20260505184603 0 218 0.0 3.0 0.00 0.00 0.00 81 1011.3
20260505184102 0 180 4.0 4.0 0.00 0.00 0.00 81 1011.2
20260505183603 0 177 5.0 7.0 0.00 0.00 0.00 81 1011.3
20260505183103 0 197 3.0 4.0 0.00 0.00 0.00 82 1011.2
20260505182603 0 187 4.0 7.0 0.00 0.00 0.00 82 1011.3
20260505182103 0 197 3.0 6.0 0.00 0.00 0.00 82 1011.7
20260505181603 0 252 4.0 6.0 0.00 0.00 0.00 82 1011.5
20260505181103 0 198 4.0 7.0 0.00 0.00 0.00 81 1011.2
20260505180602 0 183 4.0 6.0 0.00 0.00 0.00 82 1011.3
20260505175603 0 161 4.0 7.0 0.00 0.00 0.00 82 1011.2
20260505175103 0 182 6.0 8.0 0.00 0.00 0.00 82 1011.2
20260505174603 0 180 4.0 8.0 0.00 0.00 0.00 82 1011.1
20260505174103 0 179 5.0 9.0 0.00 0.00 0.00 82 1011.2
20260505173603 0 157 3.0 6.0 0.00 0.00 0.00 82 1011.2
20260505173102 0 194 6.0 8.0 0.00 0.00 0.00 81 1011.2
20260505172602 0 180 3.0 7.0 0.00 0.00 0.00 81 1011.2
20260505172102 0 238 4.0 8.0 0.00 0.00 0.00 81 1011.2
20260505171602 0 243 3.0 7.0 0.00 0.00 0.00 80 1010.8
20260505171103 0 215 2.0 7.0 0.00 0.00 0.00 79 1011.2
20260505170603 0 194 1.0 5.0 0.00 0.00 0.00 79 1011.2
20260505170103 0 194 2.0 8.0 0.00 0.00 0.00 79 1011.2
20260505165603 0 180 4.0 6.0 0.00 0.00 0.00 78 1011.1
20260505165103 0 127 4.0 7.0 0.00 0.00 0.00 78 1011.1
20260505164603 0 161 4.0 8.0 0.00 0.00 0.00 78 1011.1
20260505164102 0 169 6.0 8.0 0.00 0.00 0.00 78 1011.1
20260505163603 0 176 5.0 6.0 0.00 0.00 0.00 77 1010.8
20260505163103 0 177 5.0 6.0 0.00 0.00 0.00 77 1011.0
20260505162603 0 180 6.0 6.0 0.00 0.00 0.00 77 1011.2
20260505162102 0 170 5.0 6.0 0.00 0.00 0.00 77 1011.2
20260505161603 0 176 5.0 8.0 0.00 0.00 0.00 76 1011.2
20260505161103 0 161 2.0 5.0 0.00 0.00 0.00 76 1011.2
20260505160603 0 143 4.0 6.0 0.00 0.00 0.00 75 1011.3
20260505153102 0 150 4.0 7.0 0.00 0.00 0.00 77 1011.6
20260505152603 0 121 5.0 9.0 0.00 0.00 0.00 76 1011.6
20260505152103 0 180 6.0 11.0 0.00 0.00 0.00 75 1011.6
20260505151602 0 180 2.0 8.0 0.00 0.00 0.00 76 1011.7
20260505151103 0 165 8.0 9.0 0.00 0.00 0.00 76 1011.6
20260505150603 0 180 4.0 8.0 0.00 0.00 0.00 77 1011.5
20260505140603 0 185 4.0 10.0 0.00 0.00 0.00 72 1011.3
20260505124602 0 197 4.0 13.0 0.00 0.00 0.00 72 1011.7
20260505124103 0 134 8.0 13.0 0.00 0.00 0.00 73 1011.6
20260505123602 0 196 7.0 9.0 0.00 0.00 0.00 72 1011.7
20260505123102 0 176 10.0 11.0 0.00 0.00 0.00 72 1011.7
20260505122602 0 175 4.0 6.0 0.00 0.00 0.00 74 1011.6
20260505122102 0 189 7.0 10.0 0.00 0.00 0.00 75 1011.7
20260505121602 0 171 8.0 12.0 0.00 0.00 0.00 73 1011.7
20260505121102 0 94 2.0 6.0 0.00 0.00 0.00 73 1011.5
20260505120603 0 135 4.0 13.0 0.00 0.00 0.00 74 1011.6
20260505120103 0 126 4.0 8.0 0.00 0.00 0.00 74 1011.7
20260505115102 0 172 8.0 13.0 0.00 0.00 0.00 75 1011.3
20260505114602 0 198 6.0 10.0 0.00 0.00 0.00 77 1011.6
20260505114102 0 198 8.0 12.0 0.00 0.00 0.00 77 1011.7
20260505113602 0 182 13.0 13.0 0.00 0.00 0.00 77 1011.6
20260505113103 0 202 3.0 15.0 0.00 0.00 0.00 77 1011.5
20260505112603 0 180 8.0 21.0 0.00 0.00 0.00 77 1011.3
20260505112103 0 181 11.0 16.0 0.00 0.00 0.00 76 1011.5
20260505111602 0 125 7.0 11.0 0.00 0.00 0.00 77 1011.6
20260505111103 0 153 4.0 13.0 0.00 0.00 0.00 77 1011.5
20260505110603 0 151 8.0 9.0 0.00 0.00 0.00 78 1011.2
20260505102102 0 300 0.0 1.0 0.00 0.00 0.00 88 1011.5
20260505101602 0 285 1.0 2.0 0.00 0.00 0.00 90 1011.2
20260505101103 0 0 0.0 3.0 0.00 0.00 0.00 92 1011.3
20260505100602 0 270 0.0 2.0 0.00 0.00 0.00 92 1011.2
20260505095604 0 90 0.0 1.0 0.00 0.00 0.00 93 1011.2
20260505095103 0 107 1.0 2.0 0.00 0.00 0.00 93 1011.2
20260505094602 0 0 0.0 3.0 0.00 0.00 0.00 93 1011.2
20260505094102 0 78 0.0 4.0 0.00 0.00 0.00 94 1011.5
20260505093602 0 355 1.0 3.0 0.00 0.00 0.00 93 1011.3
20260505093104 0 351 1.0 3.0 0.00 0.00 0.00 94 1011.2
20260505092603 0 328 0.0 3.0 0.00 0.00 0.00 94 1011.2
20260505092103 0 357 2.0 3.0 0.00 0.00 0.00 94 1011.3
20260505091602 0 338 2.0 3.0 0.00 0.00 0.00 94 1011.5
20260505091103 0 334 1.0 3.0 0.00 0.00 0.00 94 1011.2
20260505090603 0 270 1.0 2.0 0.00 0.00 0.00 94 1011.6
20260505085603 0 0 1.0 3.0 0.00 0.00 0.00 95 1011.5
20260505085104 0 356 2.0 3.0 0.00 0.00 0.00 95 1011.5
20260505084603 0 40 1.0 3.0 0.00 0.00 0.00 95 1011.3
20260505084102 0 0 1.0 5.0 0.00 0.00 0.00 95 1011.5
20260505083604 0 342 1.0 4.0 0.00 0.00 0.00 94 1011.5
20260505083103 0 356 1.0 2.0 0.00 0.00 0.00 95 1011.3
20260505082603 0 4 1.0 2.0 0.00 0.00 0.00 95 1011.2
20260505082103 0 7 0.0 2.0 0.00 0.00 0.00 95 1011.2
20260505081602 0 337 1.0 3.0 0.00 0.00 0.00 95 1011.2
20260505081103 0 249 0.0 3.0 0.00 0.00 0.00 95 1011.2
20260505080602 0 270 0.0 1.0 0.00 0.00 0.00 95 1011.2
20260505075604 0 0 0.0 2.0 0.00 0.00 0.00 95 1011.5
20260505075103 0 341 0.0 3.0 0.00 0.00 0.00 95 1011.2
20260505074602 0 228 0.0 5.0 0.00 0.00 0.00 95 1011.3
20260505074102 0 255 0.0 4.0 0.00 0.00 0.00 95 1011.6
20260505073603 0 286 0.0 2.0 0.00 0.00 0.00 95 1011.6
20260505073102 0 328 0.0 2.0 0.00 0.00 0.00 95 1011.6
20260505072602 0 246 0.0 2.0 0.00 0.00 0.00 95 1011.6
20260505072104 0 276 1.0 2.0 0.00 0.00 0.00 95 1011.5
20260505071603 0 196 2.0 3.0 0.00 0.00 0.00 95 1011.3
20260505071103 0 188 2.0 2.0 0.00 0.00 0.00 95 1011.3
20260505070604 0 202 2.0 3.0 0.00 0.00 0.00 95 1011.2
20260505065602 0 107 1.0 2.0 0.00 0.00 0.00 95 1011.7
20260505065103 0 144 1.0 3.0 0.00 0.00 0.00 95 1011.5
20260505064602 0 10 1.0 4.0 0.00 0.00 0.00 95 1011.2
20260505064103 0 328 3.0 5.0 0.00 0.00 0.00 95 1011.2
20260505063603 0 299 10.0 10.0 0.00 0.00 0.00 94 1011.3
20260505063103 0 120 0.0 3.0 0.00 0.00 0.00 94 1011.3
20260505062604 0 347 4.0 13.0 0.00 0.00 0.00 94 1011.2
20260505062102 0 344 3.0 11.0 0.00 0.00 0.00 94 1011.3
20260505061602 0 252 4.0 6.0 0.00 0.00 0.00 94 1011.6
20260505061103 0 260 4.0 4.0 0.00 0.00 0.00 94 1011.0
20260505060603 0 30 2.0 5.0 0.00 0.00 0.00 94 1010.6
20260505060104 0 0 2.0 4.0 0.00 0.00 0.00 94 1010.2
20260505055602 0 294 1.0 2.0 0.00 0.00 0.00 94 1010.1
20260505055103 0 90 1.0 3.0 0.00 0.00 0.00 94 1010.2
20260505054603 0 240 0.0 3.0 0.00 0.00 0.00 94 1010.0
20260505054102 0 228 1.0 2.0 0.00 0.00 0.00 94 1010.0
20260505053602 0 6 0.0 5.0 0.00 0.00 0.00 94 1009.8
20260505053102 0 334 1.0 1.0 0.00 0.00 0.00 94 1010.0
20260505052602 0 341 3.0 6.0 0.00 0.00 0.00 94 1010.1
20260505052103 0 11 2.0 5.0 0.00 0.00 0.00 94 1009.7
20260505051602 0 300 0.0 2.0 0.00 0.00 0.00 94 1009.8
20260505051103 0 359 4.0 6.0 0.00 0.00 0.00 94 1010.2
20260505050603 0 0 2.0 8.0 0.00 0.00 0.00 94 1010.5
20260505050104 0 297 0.0 4.0 0.00 0.00 0.00 94 1010.6